Location: Seven Kings
(51.5667°N, 0.1000°E)
Time: 01:45:28
(UTC+00:00)

Aureole 3 - Pass Details

Date: 29 October 2020
Orbit: 382 x 1232 km, 82.5° (Epoch: 24 November)

Event Time Altitude Azimuth Distance (km) Brightness Sun altitude
Rises 17:31:10 0° 170° (S) 2,332 6.6 -8.9°
Reaches altitude 10° 17:33:18 10° 161° (SSE) 1,431 5.4 -9.2°
Maximum altitude 17:36:04 34° 94° (E) 659 3.2 -9.6°
Drops below altitude 10° 17:38:51 10° 27° (NNE) 1,430 5.1 -10.1°
Sets 17:40:58 0° 18° (NNE) 2,330 6.3 -10.4°
